Regional Weather Roundup
Issued by NWS

Home | Current Version | Previous Version | Text Only | Print | Product List | Glossary On
Versions: 1 2 3 4 5 6 7 8 9 10 11 12 13 14 15 16 17 18 19 20 21 22 23 24 25 26 27 28 29 30 31 32 33 34 35 36 37 38 39 40 41 42 43 44 45 46 47 48 49 50
000
ASUS43 KLSX 311557
RWRMO

WEATHER SUMMARY FOR MISSOURI
NATIONAL WEATHER SERVICE SPRINGFIELD MO
1100 AM CDT TUE MAY 31 2016

NOTE: "FAIR" INDICATES FEW OR NO CLOUDS BELOW 12,000 FEET WITH NO
       SIGNIFICANT WEATHER AND/OR OBSTRUCTIONS TO VISIBILITY.
       CURRENT SKY AND/OR WEATHER CONDITIONS ARE NOT AVAILABLE FOR
       CHILLICOTHE AND FARMINGTON.

MOZ001>031-035>038-043-044-053-054-311700-
...NORTHERN AND WESTERN MISSOURI...

CITY           SKY/WX    TMP DP  RH WIND       PRES   REMARKS
KANSAS CTY INT CLOUDY    69  63  81 SW6       29.97S
LEE`S SUMMIT   CLOUDY    69  63  81 SW8       29.97R
ST JOSEPH      CLOUDY    71  63  75 S8        29.96R
CHILLICOTHE      N/A     73  63  70 S10G16    29.96R

$$
MOZ066>068-077>081-088>096-101>105-311700-
...SOUTHWEST MISSOURI...

CITY           SKY/WX    TMP DP  RH WIND       PRES   REMARKS
SPRINGFIELD    CLOUDY    73  63  70 S6        29.98S
JOPLIN         CLOUDY    73  67  81 SW9       29.98S
BRANSON        CLOUDY    72  64  78 E9        30.00F

$$
MOZ032>034-039>042-045>050-055>058-069>072-311700-
...CENTRAL MISSOURI...

CITY           SKY/WX    TMP DP  RH WIND       PRES   REMARKS
COLUMBIA       NOT AVBL
JEFFERSON CITY CLOUDY    75  61  61 SE8       29.96F
ROLLA          PTSUNNY   75  63  66 SE14      29.99S
SEDALIA        CLOUDY    77  65  66 S10       29.97R
WARRENSBURG    CLOUDY    72  64  78 S7        29.95F

$$
MOZ051-052-059>065-311700-
...EAST CENTRAL MISSOURI...

CITY           SKY/WX    TMP DP  RH WIND       PRES   REMARKS
ST LOUIS INTL  CLOUDY    74  62  66 E9        30.00R

$$
MOZ072>076-082>087-097>100-106>115-311700-
...SOUTH CENTRAL AND SOUTHEAST MISSOURI...

CITY           SKY/WX    TMP DP  RH WIND       PRES   REMARKS
CAPE GIRARDEAU NOT AVBL
POPLAR BLUFF   CLOUDY    72  67  84 CALM      30.00R
WEST PLAINS    CLOUDY    70  63  78 CALM      30.03S

$$



USA.gov is the U.S. government's official web portal to all federal, state and local government web resources and services.